Temp
-14 -13 -13 -12 -12 -12 -12 -13 -13 -13 -13 -13 -13 -12 -11 -12 -11 -11 -11 -11 -11 -11 -11 -10 -11 -11 -12 -11 -12 -12 -13 -12 -11 -11 -12 -13 -13 -13 -14 -14 -14 -15 -14
-15 -15 -15 -15 -15 -14 -13 -13 -13 -13 -13 -13 -13 -13 -12 -13 -12 -12 -12 -12 -11 -11 -11 -11 -11 -11 -11 -11 -11 -12 -11 -11 -12 -12 -12 -13 -13 -13 -13 -14 -14 -15 -15
-16 -15 -15 -15 -15 -15 -15 -15 -15 -15 -14 -14 -13 -13 -13 -13 -12 -12 -12 -12 -11 -11 -11 -11 -11 -11 -11 -11 -11 -11 -11 -13 -13 -13 -12 -13 -13 -13 -13 -14 -15 -15 -15
-16 -16 -16 -16 -16 -16 -16 -17 -17 -16 -15 -15 -14 -14 -13 -14 -13 -13 -12 -11 -12 -11 -11 -11 -12 -11 -11 -12 -12 -12 -12 -12 -12 -12 -13 -13 -13 -14 -14 -14 -15 -15 -15
-17 -18 -19 -19 -19 -19 -19 -18 -18 -18 -17 -15 -15 -15 -14 -14 -14 -14 -13 -12 -12 -12 -11 -11 -11 -12 -12 -12 -12 -12 -12 -12 -13 -13 -13 -14 -14 -14 -15 -15 -15 -15 -16
-19 -19 -19 -19 -20 -20 -19 -19 -19 -19 -18 -17 -16 -15 -15 -14 -14 -14 -13 -13 -13 -13 -13 -12 -13 -13 -13 -13 -13 -13 -13 -13 -14 -14 -14 -14 -15 -15 -15 -16 -16 -17 -18
-20 -20 -20 -20 -20 -20 -19 -19 -19 -19 -18 -18 -17 -16 -16 -15 -14 -13 -14 -15 -14 -14 -13 -13 -13 -13 -13 -13 -13 -13 -14 -14 -14 -14 -15 -15 -16 -17 -17 -18 -19 -19 -20
-20 -21 -21 -21 -21 -20 -20 -19 -19 -19 -19 -18 -18 -17 -17 -16 -16 -15 -15 -15 -14 -14 -15 -15 -14 -14 -13 -14 -14 -14 -14 -14 -15 -16 -16 -18 -18 -19 -20 -21 -21 -21 -22
-21 -21 -21 -21 -21 -21 -21 -20 -20 -19 -19 -19 -18 -18 -18 -17 -17 -16 -16 -15 -15 -14 -15 -15 -14 -14 -14 -14 -14 -15 -16 -17 -18 -18 -19 -20 -21 -22 -22 -22 -22 -22 -23
-21 -21 -21 -21 -21 -21 -21 -21 -20 -20 -19 -19 -19 -18 -18 -17 -17 -17 -16 -16 -15 -15 -15 -15 -15 -15 -16 -16 -17 -17 -18 -19 -21 -22 -23 -23 -23 -22 -22 -22 -22 -22 -22
-21 -21 -21 -22 -21 -21 -21 -21 -20 -20 -19 -19 -19 -18 -18 -18 -17 -17 -17 -17 -16 -16 -17 -17 -18 -18 -18 -18 -19 -20 -22 -23 -24 -23 -23 -22 -22 -22 -23 -22 -22 -23 -23
-22 -21 -21 -21 -21 -21 -21 -20 -20 -20 -20 -20 -19 -19 -19 -19 -19 -19 -19 -19 -19 -19 -19 -18 -19 -20 -21 -23 -23 -24 -24 -23 -23 -22 -22 -22 -22 -22 -22 -22 -22 -22 -22
-22 -22 -22 -21 -21 -21 -21 -21 -21 -20 -20 -20 -20 -21 -21 -21 -21 -21 -20 -20 -19 -20 -21 -22 -23 -24 -24 -24 -23 -23 -23 -22 -22 -23 -22 -22 -22 -22 -22 -22 -22 -22 -22
-22 -22 -22 -22 -22 -22 -22 -22 -22 -21 -21 -21 -21 -21 -21 -21 -21 -21 -22 -23 -24 -24 -24 -24 -23 -23 -23 -23 -23 -23 -23 -23 -23 -22 -22 -22 -22 -22 -22 -22 -22 -22 -23
-22 -22 -22 -22 -22 -22 -22 -22 -22 -22 -22 -22 -22 -22 -22 -21 -22 -23 -23 -23 -23 -23 -23 -23 -23 -23 -23 -23 -23 -23 -23 -23 -23 -23 -22 -22 -22 -22 -22 -22 -22 -23 -23
-21 -22 -22 -22 -22 -22 -22 -22 -22 -22 -22 -22 -22 -22 -22 -22 -23 -23 -23 -23 -23 -23 -23 -23 -23 -23 -23 -23 -23 -23 -23 -23 -22 -22 -22 -22 -22 -22 -22 -23 -23 -23 -23
-21 -22 -22 -22 -22 -22 -22 -22 -22 -22 -22 -22 -22 -23 -23 -23 -23 -23 -23 -23 -23 -23 -23 -23 -23 -24 -24 -23 -23 -23 -23 -22 -22 -22 -22 -22 -22 -22 -22 -23 -23 -23 -23
-21 -21 -21 -22 -22 -22 -22 -22 -22 -22 -22 -22 -23 -23 -23 -23 -24 -24 -24 -24 -24 -24 -23 -24 -24 -24 -23 -23 -23 -23 -22 -22 -22 -22 -22 -22 -22 -22 -22 -23 -23 -24 -24
-21 -21 -22 -22 -22 -22 -22 -22 -22 -22 -22 -22 -23 -23 -23 -23 -23 -23 -23 -24 -24 -24 -24 -24 -24 -23 -23 -23 -23 -22 -22 -22 -22 -22 -23 -23 -23 -23 -23 -23 -23 -24 -24
-21 -21 -21 -22 -22 -22 -22 -22 -22 -22 -22 -22 -22 -23 -23 -23 -23 -23 -23 -23 -23 -23 -23 -23 -23 -23 -23 -23 -22 -22 -22 -23 -23 -22 -23 -23 -23 -23 -23 -23 -23 -23 -24
-21 -21 -22 -22 -22 -22 -22 -22 -22 -22 -22 -22 -22 -22 -22 -23 -23 -23 -23 -23 -23 -24 -24 -24 -24 -23 -23 -23 -22 -23 -23 -23 -23 -23 -23 -23 -23 -23 -24 -23 -23 -24 -25
-21 -21 -22 -21 -22 -22 -22 -22 -22 -22 -22 -22 -22 -22 -22 -22 -23 -23 -23 -23 -23 -23 -23 -23 -23 -23 -23 -23 -23 -23 -23 -23 -23 -23 -23 -24 -24 -24 -24 -24 -25 -25 -25
-21 -22 -22 -21 -22 -22 -22 -22 -22 -22 -22 -22 -22 -22 -22 -22 -22 -22 -23 -23 -23 -23 -22 -22 -22 -23 -23 -23 -23 -23 -23 -23 -23 -23 -23 -24 -24 -24 -24 -24 -25 -26 -26
-20 -21 -21 -21 -22 -21 -21 -22 -22 -22 -22 -22 -22 -22 -22 -22 -22 -22 -23 -23 -23 -23 -23 -23 -23 -23 -23 -23 -22 -23 -22 -23 -23 -23 -23 -24 -24 -24 -25 -25 -27 -27 -27
-20 -20 -21 -20 -21 -22 -21 -22 -22 -22 -22 -22 -22 -22 -22 -22 -22 -23 -22 -22 -22 -23 -23 -23 -23 -23 -23 -23 -23 -23 -23 -23 -23 -24 -24 -24 -25 -24 -25 -25 -27 -27 -27
-20 -20 -21 -21 -21 -21 -22 -22 -22 -22 -22 -22 -22 -22 -22 -22 -22 -23 -23 -23 -22 -22 -23 -23 -23 -23 -23 -22 -23 -23 -23 -23 -24 -23 -24 -24 -25 -26 -26 -27 -27 -27 -27
Height
5738 5736 5733 5730 5728 5726 5727 5729 5731 5733 5735 5736 5738 5741 5741 5742 5743 5745 5746 5748 5750 5754 5757 5759 5764 5768 5768 5767 5768 5768 5767 5771 5768 5777 5778 5774 5774 5778 5779 5779 5779 5780 5782
5725 5721 5718 5714 5711 5708 5706 5707 5709 5713 5715 5717 5721 5724 5727 5727 5728 5728 5730 5731 5733 5738 5741 5744 5745 5748 5747 5747 5750 5755 5752 5752 5760 5758 5764 5760 5761 5762 5762 5763 5766 5766 5767
5709 5706 5702 5696 5693 5690 5688 5687 5689 5692 5696 5699 5702 5706 5708 5710 5713 5712 5715 5717 5719 5722 5723 5724 5726 5730 5731 5736 5737 5737 5737 5739 5745 5746 5748 5749 5749 5748 5749 5750 5750 5750 5749
5692 5686 5680 5675 5671 5668 5669 5670 5671 5673 5677 5681 5684 5687 5691 5694 5695 5696 5699 5702 5704 5705 5705 5707 5709 5712 5716 5718 5721 5722 5723 5724 5728 5730 5731 5731 5734 5734 5736 5735 5733 5734 5732
5673 5668 5664 5658 5655 5653 5652 5653 5655 5656 5659 5663 5667 5670 5675 5679 5682 5685 5687 5688 5689 5687 5687 5691 5693 5696 5702 5704 5706 5709 5709 5710 5715 5717 5717 5719 5719 5722 5720 5719 5718 5718 5717
5660 5655 5651 5647 5644 5643 5642 5641 5642 5643 5645 5648 5651 5656 5660 5664 5668 5672 5673 5673 5675 5675 5677 5679 5682 5684 5687 5691 5693 5695 5697 5699 5699 5701 5704 5705 5704 5705 5706 5705 5704 5703 5702
5649 5643 5638 5635 5635 5634 5632 5632 5633 5633 5634 5635 5638 5641 5645 5649 5654 5657 5660 5662 5664 5666 5668 5670 5672 5675 5677 5679 5682 5684 5686 5687 5688 5689 5689 5691 5692 5690 5692 5692 5691 5690 5689
5638 5632 5628 5626 5625 5624 5621 5621 5623 5623 5625 5626 5627 5629 5632 5635 5640 5645 5648 5650 5653 5654 5657 5660 5663 5664 5664 5667 5670 5672 5672 5673 5674 5676 5678 5679 5680 5680 5681 5681 5680 5680 5679
5628 5623 5620 5617 5617 5617 5616 5616 5616 5616 5618 5618 5619 5620 5622 5625 5630 5634 5639 5641 5643 5645 5647 5649 5651 5653 5653 5654 5656 5658 5659 5662 5665 5667 5669 5670 5671 5672 5673 5673 5673 5671 5670
5621 5616 5612 5610 5610 5610 5610 5610 5610 5610 5611 5611 5612 5613 5614 5616 5619 5624 5628 5630 5633 5635 5637 5639 5640 5643 5645 5646 5649 5651 5653 5655 5658 5660 5663 5665 5666 5667 5667 5666 5665 5664 5660
5617 5611 5606 5604 5604 5604 5604 5604 5605 5606 5605 5606 5606 5607 5607 5609 5612 5614 5618 5620 5621 5624 5627 5630 5633 5636 5637 5640 5642 5645 5648 5652 5655 5658 5660 5660 5661 5661 5662 5661 5657 5653 5650
5615 5608 5604 5602 5600 5599 5599 5600 5601 5601 5601 5601 5601 5601 5602 5603 5605 5607 5609 5612 5615 5619 5622 5625 5626 5629 5632 5636 5640 5644 5648 5651 5653 5654 5654 5655 5656 5657 5655 5652 5649 5647 5643
5614 5609 5605 5601 5598 5597 5597 5597 5596 5597 5598 5598 5599 5600 5602 5603 5604 5605 5607 5610 5613 5616 5619 5622 5625 5629 5632 5637 5641 5644 5646 5648 5648 5649 5649 5649 5649 5647 5644 5642 5636 5630 5628
5613 5610 5606 5602 5600 5597 5597 5597 5598 5598 5599 5599 5601 5602 5603 5604 5604 5604 5605 5608 5612 5617 5621 5624 5627 5630 5633 5636 5638 5640 5641 5642 5642 5643 5642 5641 5640 5637 5631 5628 5625 5622 5620
5613 5609 5606 5604 5602 5601 5599 5599 5598 5599 5600 5601 5603 5604 5606 5606 5606 5608 5610 5612 5616 5619 5623 5625 5628 5630 5631 5632 5634 5635 5637 5636 5636 5635 5634 5632 5627 5624 5622 5618 5614 5609 5602
5611 5608 5606 5605 5603 5602 5601 5600 5599 5599 5600 5601 5603 5604 5605 5607 5608 5610 5613 5614 5616 5619 5622 5624 5625 5627 5628 5628 5629 5629 5628 5629 5629 5627 5624 5620 5618 5616 5612 5605 5598 5590 5583
5608 5606 5605 5603 5602 5600 5599 5598 5598 5598 5598 5599 5600 5602 5604 5606 5608 5610 5612 5614 5616 5619 5620 5622 5622 5622 5623 5623 5622 5622 5621 5619 5617 5615 5613 5611 5608 5603 5597 5591 5583 5575 5568
5605 5603 5602 5601 5600 5598 5597 5597 5596 5596 5596 5597 5598 5600 5603 5606 5608 5609 5611 5612 5614 5615 5616 5617 5617 5617 5616 5616 5615 5614 5613 5611 5609 5607 5604 5600 5594 5589 5583 5575 5568 5559 5552
5600 5599 5598 5597 5597 5595 5594 5594 5594 5595 5595 5596 5598 5600 5601 5603 5605 5606 5608 5609 5609 5610 5611 5611 5610 5609 5609 5608 5607 5606 5604 5603 5600 5596 5591 5588 5582 5576 5569 5561 5553 5545 5535
5595 5594 5594 5594 5594 5593 5592 5591 5591 5592 5593 5594 5595 5597 5597 5600 5601 5603 5604 5604 5604 5605 5604 5604 5603 5603 5602 5601 5598 5596 5594 5592 5588 5584 5579 5573 5566 5560 5554 5547 5539 5529 5518
5590 5588 5588 5588 5587 5587 5587 5587 5587 5587 5589 5590 5591 5592 5591 5596 5596 5596 5597 5598 5598 5598 5598 5597 5596 5595 5593 5590 5587 5585 5583 5579 5575 5571 5565 5560 5554 5548 5541 5531 5522 5509 5497
5582 5582 5582 5581 5581 5580 5581 5581 5582 5583 5583 5583 5585 5586 5585 5588 5589 5589 5589 5588 5588 5589 5588 5588 5587 5586 5583 5579 5578 5575 5571 5567 5563 5558 5552 5546 5540 5532 5523 5513 5503 5492 5482
5574 5573 5573 5572 5574 5573 5573 5574 5576 5576 5577 5578 5577 5578 5576 5578 5581 5580 5580 5580 5580 5579 5578 5576 5576 5573 5571 5570 5567 5564 5560 5555 5550 5546 5539 5532 5525 5516 5505 5495 5484 5477 5471
5566 5565 5563 5563 5565 5563 5564 5562 5566 5568 5569 5569 5570 5571 5570 5568 5569 5570 5570 5570 5570 5569 5568 5566 5566 5563 5561 5558 5556 5552 5548 5543 5537 5531 5524 5517 5510 5500 5490 5481 5473 5467 5462
5554 5555 5554 5555 5554 5554 5554 5556 5557 5558 5559 5560 5560 5561 5562 5560 5558 5562 5560 5555 5556 5558 5557 5555 5554 5552 5550 5547 5543 5540 5534 5529 5523 5517 5509 5501 5493 5484 5476 5470 5463 5460 5456
5541 5541 5540 5542 5543 5543 5543 5544 5546 5548 5547 5549 5549 5550 5547 5545 5545 5545 5549 5551 5549 5547 5546 5545 5544 5540 5537 5534 5529 5525 5520 5514 5508 5501 5494 5486 5477 5470 5464 5460 5456 5453 5450
Wind_Speed
52 59 67 73 74 76 78 77 75 73 67 65 63 58 56 59 61 57 57 58 62 77 76 71 79 81 83 76 77 74 78 67 60 73 71 71 63 59 56 63 66 64 62
49 53 53 55 61 68 75 78 77 73 74 72 69 63 63 63 69 59 52 50 53 61 58 69 71 76 83 80 87 82 83 71 73 84 74 61 55 55 62 65 65 62 60
51 53 58 60 64 64 64 67 68 70 68 69 68 66 65 64 61 58 62 56 57 48 55 59 60 65 74 82 77 88 87 87 75 78 79 69 58 58 63 64 58 60 62
55 61 64 61 57 60 61 60 57 61 64 66 65 67 63 60 57 51 46 49 51 54 54 58 61 65 75 69 70 76 80 87 71 72 57 58 55 52 54 57 59 63 64
51 47 44 45 44 45 48 50 47 48 54 59 62 60 58 54 51 48 48 45 41 41 47 52 55 53 66 61 61 65 66 71 76 57 51 47 50 53 53 53 58 59 55
42 41 42 41 39 35 35 36 38 38 42 51 52 55 53 55 52 49 45 42 36 35 33 41 45 47 51 54 54 55 52 52 46 47 49 49 49 51 52 49 53 49 46
44 41 40 37 33 34 27 28 30 33 34 37 39 42 45 48 48 48 51 41 36 38 41 32 29 31 32 38 41 45 45 47 47 45 44 45 43 39 39 39 42 45 47
41 36 34 33 32 38 36 34 30 24 25 32 37 39 42 44 44 42 40 35 30 33 27 27 35 38 43 43 45 46 48 47 44 42 38 30 28 30 33 35 35 33 31
34 33 31 30 30 31 30 33 33 31 30 25 26 31 35 38 42 42 40 39 38 39 40 35 43 48 49 48 47 44 40 33 27 23 23 24 24 24 24 23 25 26 28
29 26 29 26 26 26 26 25 25 23 26 25 24 25 28 30 34 41 42 39 44 46 42 44 43 43 41 41 36 27 18 15 10 12 12 14 15 16 14 20 25 26 29
26 24 22 20 20 19 19 18 19 21 20 20 19 21 22 24 27 32 38 39 35 34 30 32 34 33 27 21 14 6 3 3 5 7 7 10 9 12 17 23 27 30 34
25 22 16 19 23 18 16 15 16 12 13 15 14 13 13 13 15 18 20 24 25 27 28 27 21 11 6 5 4 5 4 5 8 10 11 12 13 20 23 27 30 34 38
20 20 16 13 15 8 13 13 15 10 9 8 8 9 14 17 20 22 22 21 18 12 8 5 8 7 8 9 8 8 9 11 13 14 14 17 20 28 31 34 39 45 45
17 16 15 15 17 13 11 6 11 12 11 6 4 1 1 1 4 4 7 11 11 11 9 7 8 14 12 9 7 9 11 13 15 18 21 27 31 34 38 45 47 49 54
15 15 17 14 12 12 11 8 2 7 8 7 8 8 7 6 4 6 11 13 12 9 6 5 6 12 13 13 11 14 16 19 21 25 29 32 35 39 45 51 52 55 57
16 15 15 16 15 12 9 9 7 5 5 8 10 10 9 11 10 13 11 9 7 5 6 8 10 11 12 14 17 19 21 24 27 31 34 37 41 47 50 51 55 58 61
14 13 14 15 15 15 15 12 9 7 8 11 13 14 16 15 14 12 11 9 9 4 2 3 6 10 12 14 18 23 27 30 34 38 40 44 49 50 52 57 58 61 65
17 16 15 14 13 14 16 13 12 10 7 7 11 16 19 17 16 15 13 10 9 10 11 13 17 21 22 22 24 27 32 36 39 42 46 49 51 54 55 59 62 66 71
18 18 18 17 16 15 15 15 14 12 10 9 10 15 18 17 17 17 15 16 17 18 21 22 25 26 27 27 29 32 35 37 41 45 48 50 52 54 58 63 68 72 76
22 20 18 18 18 17 16 15 14 15 15 15 15 19 21 20 20 22 23 24 25 26 29 30 31 31 32 34 35 37 38 39 43 46 48 52 55 60 61 65 70 75 82
23 22 20 18 19 18 20 19 18 18 20 21 21 22 25 22 24 27 27 28 30 32 35 36 38 38 39 39 40 40 40 42 45 48 52 56 61 64 67 68 77 83 88
24 26 22 26 23 23 21 23 24 24 22 23 25 27 30 27 28 31 31 32 33 36 37 37 38 40 43 44 44 44 46 48 50 53 57 60 61 61 66 72 79 78 59
32 29 30 29 29 25 22 24 26 27 27 27 27 28 33 31 28 31 33 34 35 38 39 36 38 41 42 42 43 43 46 50 51 56 61 62 60 70 73 75 66 48 41
38 35 37 33 27 31 36 26 28 32 31 29 30 29 28 32 31 32 31 32 34 37 39 41 41 42 42 43 45 48 51 55 53 56 62 60 68 73 71 56 43 38 31
43 41 41 38 36 31 32 37 39 35 32 33 34 34 34 39 41 36 35 43 31 38 40 41 40 41 45 48 50 54 61 61 59 59 58 62 70 65 52 45 38 28 26
45 50 52 43 40 38 34 33 32 34 36 36 35 38 38 45 43 43 33 34 43 42 42 43 44 42 43 45 51 54 57 59 54 58 62 65 56 51 42 36 28 22 16
Wind_Direction
269 265 264 263 262 262 261 260 260 259 260 263 264 267 269 265 251 258 245 256 256 249 251 254 254 257 253 254 253 252 255 253 251 263 261 259 257 259 257 258 259 261 265
275 277 275 276 272 269 266 263 262 259 259 258 259 259 260 266 264 262 265 266 255 243 256 252 252 256 255 250 256 253 260 250 263 261 258 249 251 249 253 262 266 268 272
286 286 282 282 277 272 267 263 260 259 257 258 257 257 260 264 267 271 275 267 263 264 262 261 251 255 256 257 262 265 264 259 256 259 260 256 250 259 265 264 268 271 274
293 291 290 284 276 266 263 262 261 256 252 253 255 255 259 265 267 268 270 270 270 268 266 251 251 254 244 258 267 265 260 260 257 254 246 247 261 264 258 267 273 273 274
302 296 286 283 279 273 268 263 264 260 253 250 251 255 256 255 257 260 263 255 256 256 255 252 250 250 250 257 259 255 261 257 252 245 255 253 258 265 271 269 269 268 269
295 291 286 285 276 276 277 272 268 267 260 254 253 252 252 252 251 252 246 253 266 255 257 252 253 255 253 254 255 256 248 243 242 249 256 263 263 264 265 264 267 276 286
292 287 287 281 269 265 268 267 267 260 258 258 255 250 247 246 248 249 251 259 258 259 261 244 245 253 252 246 244 244 242 251 259 255 256 255 257 265 273 284 290 296 299
296 287 288 279 269 265 278 266 272 259 261 258 257 251 246 244 245 243 244 251 247 254 252 247 248 252 245 245 250 252 253 255 251 250 253 265 279 287 297 302 302 301 300
296 287 294 285 272 268 274 270 269 265 252 257 260 259 254 248 240 235 235 238 239 240 246 248 247 250 247 241 240 239 236 237 247 267 283 295 305 308 306 303 302 305 305
308 295 298 290 278 270 270 272 264 269 259 261 259 255 250 250 244 242 241 247 238 246 249 245 246 245 240 237 233 233 248 268 292 307 310 305 301 300 310 325 321 318 321
327 314 299 288 289 277 283 271 264 269 260 263 256 256 251 248 246 241 246 251 249 248 249 244 239 230 223 229 241 255 261 308 311 300 289 292 289 305 306 312 314 309 306
336 335 314 291 295 279 278 267 271 267 270 265 264 260 272 268 248 232 228 228 226 215 215 216 216 198 155 132 138 160 195 242 260 280 283 280 283 302 311 311 310 307 309
332 352 338 320 332 291 276 279 284 261 280 267 275 248 215 197 193 185 185 189 191 172 154 164 124 124 136 152 174 206 239 261 271 275 270 292 292 303 311 310 311 314 309
327 340 349 1 4 5 359 298 241 212 195 178 175 119 6 1 285 272 72 79 87 104 112 138 166 169 176 195 224 248 264 272 279 282 275 285 290 299 309 311 309 302 301
310 316 331 341 343 344 347 5 63 155 155 165 176 183 225 223 176 120 132 141 151 156 171 199 208 213 228 242 256 274 275 289 289 296 292 292 301 303 303 302 302 302 304
300 298 306 315 314 310 312 316 312 268 184 195 212 217 211 199 180 169 161 160 169 196 234 252 255 268 270 264 270 278 284 287 288 292 298 300 301 300 303 302 301 304 307
293 292 293 299 304 300 302 305 291 277 267 239 225 224 205 192 180 180 182 178 167 174 224 285 311 323 319 299 289 284 289 295 298 299 298 297 301 302 301 303 305 305 306
297 290 286 283 284 288 290 290 292 279 264 234 205 196 194 194 201 205 211 223 239 260 283 296 307 311 307 298 295 294 292 292 293 296 296 296 297 301 303 305 305 305 306
287 288 282 280 279 276 272 275 279 265 260 255 225 207 209 217 221 226 234 249 260 275 288 295 302 304 302 294 290 289 289 292 292 291 295 302 303 303 303 305 305 304 304
286 280 281 281 278 278 272 273 266 257 259 255 249 238 241 239 239 243 249 257 267 277 286 290 292 293 290 290 291 291 293 295 295 298 302 304 304 305 305 307 309 307 302
279 283 274 275 276 269 264 265 261 254 254 256 252 251 255 247 254 257 257 263 270 275 280 285 288 290 291 290 287 290 292 292 297 300 303 304 304 305 307 308 310 305 306
277 275 269 276 276 268 263 261 262 264 258 256 260 260 261 258 256 261 266 271 274 275 275 275 277 282 282 283 289 293 293 298 300 301 300 301 305 307 308 306 304 308 310
280 278 265 261 262 263 269 269 264 262 264 265 265 263 267 268 263 265 269 273 275 276 276 279 282 281 284 291 293 294 295 296 298 298 300 301 303 314 309 308 310 306 303
279 272 274 268 269 266 254 260 276 268 266 261 263 267 269 272 268 267 269 270 272 278 282 283 287 289 291 290 292 293 294 294 295 301 303 301 307 306 309 308 306 303 300
286 277 266 267 263 256 250 259 264 264 266 265 267 270 268 266 266 263 269 264 269 281 281 281 283 288 291 291 294 297 298 298 298 301 307 305 302 307 305 305 305 297 294
276 269 263 264 267 265 258 256 261 259 257 263 259 259 264 268 273 275 250 261 269 277 280 282 285 292 296 295 296 299 302 300 301 309 306 304 306 304 304 304 295 291 286